Theta_e
286 282 280 282 286 284 284 284 283 285 290 289 289 293 297 298 294 294 295 296 299 301 305 305 305 305 305 306 305 305 307 308 308 303 305 304 305 300 297 296 300 299 298 295
282 280 284 285 285 286 285 283 283 286 289 290 288 289 292 294 296 296 297 296 298 301 301 303 304 303 303 303 305 305 304 306 307 308 307 304 299 298 300 298 296 297 297 296
281 283 287 285 283 283 284 284 283 284 286 287 286 286 288 292 296 297 298 299 299 300 300 302 303 302 303 302 303 304 303 302 306 306 300 298 298 297 297 297 297 296 296 295
283 286 284 282 282 284 279 286 287 285 282 278 285 279 285 288 292 293 298 298 300 300 302 302 303 302 302 302 302 303 303 301 302 299 303 304 304 304 300 301 299 298 296 295
282 282 283 282 282 286 281 287 286 285 282 280 281 279 283 284 286 290 293 296 300 302 302 302 302 304 303 303 301 301 301 299 299 297 302 301 302 301 296 297 297 297 297 297
282 284 285 284 285 286 287 285 285 283 282 276 282 281 281 284 286 287 292 292 296 299 301 303 303 305 303 303 300 299 296 295 296 296 297 297 298 294 294 294 297 296 296 297
280 281 283 286 282 285 286 282 275 274 274 276 279 280 285 287 288 289 290 290 291 295 299 300 300 302 302 301 300 298 296 294 294 295 295 296 296 295 296 295 296 293 294 293
275 272 281 285 283 281 283 283 276 270 272 275 279 277 283 289 294 294 290 289 289 293 297 298 299 301 301 301 300 299 296 295 294 295 295 296 296 296 296 295 294 295 295 295
274 275 280 284 286 286 281 280 286 278 268 274 276 279 284 287 287 288 287 287 289 288 290 295 296 298 299 299 299 299 296 296 294 294 295 295 296 296 296 294 294 294 293 293
279 274 280 282 285 286 285 286 280 279 267 269 275 276 279 282 286 287 285 286 288 288 290 292 292 294 296 297 299 299 297 296 295 294 295 296 295 296 295 293 292 291 292 292
280 277 276 281 281 282 281 281 282 282 278 275 272 275 281 285 285 287 287 288 287 290 291 292 292 293 293 296 296 297 297 296 294 294 293 294 294 294 293 293 292 292 291 292
282 278 273 276 280 281 281 282 284 279 277 277 277 276 283 284 285 287 286 288 288 289 290 291 292 293 294 295 296 296 296 296 296 295 293 292 292 292 291 291 292 292 292 292
283 277 266 273 277 279 280 282 284 285 280 278 277 279 284 284 284 286 286 287 288 288 289 291 292 292 292 293 294 294 295 295 295 294 293 292 292 291 291 291 292 292 292 292
289 280 278 273 277 278 278 280 281 283 279 280 280 280 282 283 285 285 287 287 287 288 289 289 290 291 291 292 292 293 293 294 294 294 293 292 292 293 293 293 293 292 292 292
284 272 279 280 278 279 280 280 280 280 283 279 282 279 284 285 285 287 287 286 287 288 288 288 289 289 290 291 291 292 292 293 293 293 293 293 293 293 292 292 292 291 291 291
282 273 277 271 280 279 278 279 281 282 284 283 281 280 285 286 284 285 287 287 287 288 289 289 289 289 290 291 291 292 292 291 292 292 291 291 291 291 290 290 290 290 289 289
280 272 268 271 277 278 272 277 279 282 284 285 280 286 283 284 286 286 287 288 289 289 289 289 289 290 290 291 292 291 291 292 291 291 291 291 290 290 289 289 289 289 288 288
280 279 268 263 268 268 279 282 282 281 283 285 286 285 289 288 287 289 290 290 290 290 290 290 290 290 290 290 290 291 291 291 290 290 289 289 289 289 288 288 288 287 287 286
283 278 271 274 269 273 278 279 279 279 281 284 284 287 287 284 285 286 289 291 292 291 292 291 291 290 290 290 289 289 289 288 288 287 288 288 288 287 287 286 286 286 286 285
283 284 277 264 268 266 278 281 284 284 277 286 286 286 287 285 283 289 288 290 291 292 292 290 290 290 290 289 289 288 287 287 286 286 286 286 287 287 286 285 285 285 285 284
276 278 278 267 263 271 280 282 284 275 279 284 286 287 286 285 289 288 288 290 292 292 291 291 290 290 290 289 289 287 286 285 285 285 284 285 285 285 285 285 285 284 284 284
277 275 276 271 269 269 282 281 281 285 285 285 284 286 287 289 286 287 288 289 290 290 290 290 290 288 288 288 288 286 285 284 284 284 284 284 284 284 284 284 283 284 284 283
274 279 275 279 278 283 282 285 285 285 285 284 284 285 285 285 285 287 287 288 289 289 289 289 288 287 287 287 288 285 284 284 284 283 282 282 283 283 283 283 283 283 283 283
279 281 279 279 282 282 284 284 285 287 286 286 286 286 286 286 285 285 286 286 286 287 286 287 286 286 284 285 285 285 284 284 284 282 281 281 281 281 282 283 283 283 282 282
280 281 277 277 281 282 284 284 286 286 286 286 286 286 287 286 285 285 284 285 286 286 286 287 287 285 284 284 283 284 284 284 283 282 282 281 282 282 282 283 283 283 283 283
280 280 281 281 283 284 284 287 286 285 286 287 286 285 285 285 284 284 283 284 285 284 285 285 285 284 283 284 283 284 284 284 283 282 282 282 282 282 283 282 283 286 286 286
Wind_Speed
4 5 12 13 16 6 3 4 7 2 5 5 7 18 15 10 6 8 9 11 15 18 13 10 13 13 13 14 15 15 14 13 11 5 7 6 8 4 3 4 7 7 6 7
2 16 8 6 5 7 7 6 6 5 5 6 8 16 11 9 9 11 15 13 16 14 9 11 14 15 16 16 16 17 17 15 13 10 7 4 4 2 3 4 5 6 7 7
11 5 15 9 6 11 13 17 6 6 4 3 3 10 7 8 13 9 9 11 14 16 16 13 16 19 15 18 19 17 17 16 15 13 6 4 4 3 4 3 4 6 7 7
10 7 5 7 14 13 14 8 10 7 2 6 3 9 9 6 12 11 17 14 16 16 17 14 16 15 20 21 16 17 17 15 14 13 13 14 10 11 5 6 4 5 7 7
10 7 16 12 12 15 7 8 10 9 6 1 8 3 8 3 9 11 14 15 18 19 18 16 18 20 20 15 17 16 15 15 15 15 15 12 10 5 3 3 7 6 6 7
8 2 7 8 6 14 6 2 3 3 5 9 16 9 9 10 8 7 12 11 15 16 16 17 18 16 14 13 14 14 16 14 13 15 15 15 14 7 6 5 6 5 4 5
3 9 4 5 6 5 7 8 1 1 3 12 3 10 22 7 9 8 12 10 10 11 13 15 15 15 14 17 16 14 16 16 14 15 14 14 14 11 11 8 6 6 4 4
14 7 16 7 8 8 18 14 7 9 5 4 3 10 9 10 17 13 11 9 7 8 9 11 13 14 15 18 17 17 17 15 15 16 15 13 11 8 8 9 6 6 6 6
8 9 2 6 5 10 7 14 8 6 3 2 6 7 9 10 12 9 9 7 9 6 5 7 7 9 10 13 17 18 16 15 15 15 11 12 10 10 11 9 8 6 6 4
6 2 4 8 3 4 10 8 7 2 4 6 5 5 7 4 11 6 7 9 7 2 2 3 4 5 4 6 9 12 13 16 15 13 12 11 12 11 9 8 9 8 6 6
6 5 2 4 10 21 4 7 5 5 5 6 2 8 8 12 4 8 10 7 7 6 4 1 2 3 4 4 7 9 11 12 12 12 11 11 10 10 8 8 8 8 6 7
13 4 5 9 4 2 2 6 15 9 13 6 2 8 2 5 7 7 6 7 4 3 3 1 1 2 3 4 6 9 8 11 11 11 10 10 8 8 8 7 7 7 7 6
14 6 3 6 5 2 7 8 12 18 4 14 10 16 3 2 3 3 4 5 5 5 5 3 2 2 3 3 5 6 7 7 8 9 9 7 7 7 7 7 6 6 6 6
18 5 17 17 14 7 6 8 8 17 13 18 17 10 3 4 5 3 4 6 7 6 7 5 4 3 3 4 5 5 6 6 7 8 8 7 7 7 6 6 6 6 6 6
13 9 13 18 2 6 8 15 10 10 21 13 24 7 12 10 8 10 7 6 6 6 7 7 6 5 4 5 5 5 6 6 6 8 7 7 6 6 6 6 6 6 6 5
5 6 6 4 12 6 4 8 14 17 21 13 10 12 8 9 1 5 7 7 8 7 8 8 8 7 6 6 5 6 6 6 7 7 7 7 7 7 6 6 6 6 6 6
9 6 4 9 1 6 7 17 13 16 20 23 14 23 2 6 8 9 11 13 14 11 9 9 9 8 7 6 6 6 7 7 8 8 7 7 7 7 7 6 7 6 6 6
14 13 4 4 4 5 9 12 13 15 17 14 18 7 14 15 9 9 10 15 14 12 12 10 7 7 7 6 7 8 7 8 9 8 8 7 7 8 7 7 7 6 5 7
6 7 3 8 7 4 7 7 9 10 20 13 12 13 13 3 3 10 12 11 14 10 9 8 10 8 9 9 8 9 9 8 8 7 7 6 7 8 7 8 7 6 7 7
4 10 8 3 7 12 6 8 7 7 17 19 19 18 18 8 9 18 8 8 9 10 11 12 10 11 11 9 9 10 8 8 8 7 7 6 6 8 8 8 7 4 7 8
7 5 15 4 4 8 8 3 6 9 12 8 20 18 13 13 18 5 8 8 13 14 16 15 13 11 11 11 11 10 9 8 6 7 7 7 6 8 8 6 6 7 9 9
11 11 7 4 3 9 8 5 14 12 1 1 4 10 17 18 5 6 9 10 15 16 16 16 16 12 9 10 11 10 9 8 8 7 8 8 8 6 6 9 8 8 9 9
2 10 11 14 9 6 10 10 5 3 2 2 2 3 5 7 6 7 7 10 13 17 16 13 15 14 11 9 11 12 9 9 9 8 8 9 8 7 7 9 9 7 7 7
1 3 5 5 7 8 7 5 4 6 6 4 3 4 4 4 5 8 7 9 11 13 15 14 16 15 13 10 8 11 12 10 10 10 9 8 9 8 7 6 6 6 6 6
4 6 6 2 2 2 6 9 7 9 5 6 5 5 6 6 7 8 7 9 11 12 13 15 16 15 14 11 11 11 12 11 11 10 9 9 8 9 8 7 6 6 4 5
6 10 9 10 9 7 5 11 8 9 11 10 8 4 4 6 7 7 7 8 12 14 13 12 14 15 13 12 12 11 11 11 12 11 9 8 8 8 8 9 9 12 12 13
Wind_Direction
197 173 210 193 203 212 202 244 232 246 229 202 231 244 239 237 221 244 229 213 216 219 224 199 195 190 188 190 184 180 186 186 175 168 179 188 195 180 188 186 203 184 184 184
122 234 211 209 198 204 232 230 247 287 246 173 265 261 243 220 225 204 226 222 223 225 200 199 192 190 192 188 192 188 188 185 184 191 189 167 151 162 164 179 199 198 186 183
201 211 191 185 190 209 227 231 222 215 344 255 296 277 245 231 228 222 227 220 223 217 212 202 194 195 188 193 195 192 187 184 188 185 141 102 95 84 155 182 198 207 191 190
237 208 173 195 219 193 229 183 233 238 278 259 147 281 258 243 236 212 226 216 224 215 219 205 197 191 196 202 190 190 189 183 184 170 181 195 201 208 198 191 176 186 192 201
226 187 198 205 212 188 224 181 193 201 191 340 233 253 267 243 239 237 233 226 227 224 215 207 194 199 202 188 189 186 182 184 182 180 188 191 202 200 139 155 175 188 196 202
236 202 186 218 179 187 179 87 88 95 123 239 232 202 245 216 210 241 243 234 228 224 218 214 202 196 192 180 180 179 176 181 180 183 190 191 196 171 160 170 190 196 197 202
186 225 253 174 153 144 166 133 251 18 208 240 233 183 241 242 241 218 237 241 236 225 215 211 191 185 177 179 177 175 178 184 179 185 188 191 195 182 188 181 185 177 198 213
200 255 191 186 192 177 188 174 171 191 209 249 112 228 245 229 238 247 230 244 264 236 215 205 193 185 185 183 177 178 182 181 180 186 191 190 193 181 187 188 185 195 203 207
175 247 168 205 164 157 206 211 179 111 27 99 222 291 301 256 259 241 241 235 236 216 210 208 180 181 185 178 180 182 179 181 183 186 180 185 181 181 190 187 189 196 196 198
194 250 197 197 132 240 178 176 180 219 163 230 262 258 233 289 264 266 238 230 240 237 164 141 124 161 171 181 178 174 179 183 178 178 183 187 187 191 188 176 190 194 195 197
171 154 307 108 197 195 173 191 208 174 160 210 237 255 221 233 299 262 240 216 222 209 199 219 88 94 147 159 162 172 171 170 169 176 175 176 180 182 175 187 192 195 187 193
197 145 182 206 245 287 236 220 205 205 219 227 164 259 238 263 279 269 266 215 174 189 179 176 227 144 145 161 173 176 168 170 174 172 169 178 166 162 174 186 190 178 195 191
165 219 56 353 350 209 198 198 205 225 63 214 214 250 172 349 323 330 167 165 157 159 146 136 154 204 176 154 156 160 160 159 149 150 156 153 160 163 179 185 183 180 190 193
169 184 207 211 221 130 214 210 211 213 224 234 228 237 308 249 258 243 205 185 174 186 166 160 153 188 175 154 142 130 127 137 143 143 146 155 162 168 170 168 171 176 181 178
172 203 213 230 199 185 211 211 192 199 227 213 239 224 228 262 231 213 195 175 172 197 184 172 158 165 157 138 136 126 121 127 131 130 133 144 142 143 141 144 149 148 153 161
182 231 128 244 230 206 236 219 200 214 233 239 228 244 207 239 144 155 189 190 197 198 212 172 158 155 159 148 143 130 128 127 122 119 122 124 126 125 131 130 131 124 119 118
163 127 92 232 129 111 279 217 202 219 229 221 223 235 206 233 212 199 203 200 200 187 200 178 173 158 152 145 137 128 120 114 110 114 115 117 117 114 116 117 113 114 115 107
175 183 124 191 86 210 248 169 197 210 228 231 243 199 221 230 223 225 210 200 199 188 180 170 159 147 135 123 111 112 110 109 110 107 107 107 109 111 112 110 107 102 97 101
188 137 124 169 198 294 256 212 167 174 248 220 237 230 236 186 116 260 204 197 204 184 167 158 149 144 133 128 124 116 108 108 109 110 110 111 115 114 111 110 111 106 104 93
119 185 146 121 158 214 244 192 153 94 267 224 203 212 223 154 222 240 162 155 152 152 152 149 145 138 137 138 131 123 123 120 119 121 117 113 115 119 116 116 110 97 103 101
150 174 192 177 214 282 242 150 147 148 248 222 193 204 196 201 225 159 152 164 164 160 156 147 149 156 150 143 136 129 129 127 122 118 113 105 102 111 116 110 109 113 109 103
166 154 172 120 159 262 176 110 184 205 323 158 148 211 200 217 151 160 183 162 161 160 154 161 150 147 145 144 135 134 133 130 124 118 117 114 111 106 109 113 108 109 113 111
135 179 170 186 197 217 189 188 185 128 186 248 168 143 173 193 197 183 194 171 168 161 155 154 147 139 141 146 146 137 139 134 127 121 121 105 102 101 107 117 119 116 117 118
213 160 149 117 206 210 203 221 221 183 198 199 194 162 163 214 224 213 186 165 158 156 155 146 142 145 144 142 137 134 140 138 130 127 119 119 120 110 108 112 116 121 124 123
173 119 164 290 285 71 257 222 210 219 191 183 213 199 214 216 237 203 179 168 160 157 152 155 151 149 145 138 131 141 142 139 133 131 130 124 122 122 117 106 111 116 98 130
193 170 181 221 184 178 201 212 189 204 215 196 189 216 213 201 210 166 158 158 153 149 147 142 139 137 139 137 139 143 147 149 144 139 137 136 131 128 123 122 115 105 119 128